Location: Newark
(39.0083°N, 20.7336°E)
Time: 13:38:38
(UTC+00:00)

ISS - Pass Details

Date: 03 October 2021
Orbit: 417 x 423 km, 51.6° (Epoch: 24 October)

Event Time Altitude Azimuth Distance (km) Brightness Sun altitude
Rises 16:44:35 0° 316° (NW) 2,364 0.8 -6.3°
Reaches altitude 10° 16:47:03 10° 334° (NNW) 1,499 -0.6 -6.8°
Maximum altitude 16:49:38 20° 24° (NNE) 1,027 -2.0 -7.3°
Drops below altitude 10° 16:52:13 10° 75° (ENE) 1,497 -1.6 -7.8°
Enters shadow 16:52:19 10° 76° (ENE) 1,525 -1.5 -7.8°
